Simultaneous Nadir Overpasses (SNOs) Predictions

Prediction of SNOs between NOAA-20 and LANDSAT-8 Satellite Orbit:

Table of predicted SNOs for the next 14.0 days since TLE Epoch: 11/28/2020
Index Date (NOAA-20) Time (NOAA-20) Lat,Lon (NOAA-20) SZA (NOAA-20 ) Date (LANDSAT-8) Time (LANDSAT-8) Lat,Lon (LANDSAT-8) SZA (LANDSAT-8 ) Distance(km) Time Diff (sec)
1 11/28/2020 22:49:14 70.52,-166.76 91.93 11/28/2020 22:50:24 70.42,-165.64 91.82 43.45 70
2 11/28/2020 23:39:47 -69.96, 1.43 88.63 11/28/2020 23:40:00 -69.98, 1.36 88.62 2.86 13
3 11/29/2020 00:30:32 69.90, 168.84 91.31 11/29/2020 00:29:27 69.87, 168.86 91.28 2.64 65
4 12/01/2020 15:06:01 70.04, -50.24 91.87 12/01/2020 15:07:00 70.06, -50.28 91.88 2.21 59
5 12/01/2020 15:56:43 -69.95, 117.21 88.22 12/01/2020 15:56:30 -69.95, 117.20 88.23 1.02 13
6 12/01/2020 16:47:16 69.25, -74.45 91.08 12/01/2020 16:46:07 69.29, -76.05 91.13 63.15 69
7 12/04/2020 07:22:56 70.04, 65.54 92.24 12/04/2020 07:23:29 70.02, 65.54 92.22 2.28 33
8 12/04/2020 08:13:37 -69.89,-126.93 87.90 12/04/2020 08:12:59 -69.91,-126.97 87.89 2.55 38
9 12/06/2020 22:49:15 -70.52, 13.25 86.95 12/06/2020 22:50:26 -70.41, 14.34 87.07 42.26 71
10 12/06/2020 23:39:51 69.98,-178.61 92.51 12/06/2020 23:39:59 69.97,-178.65 92.50 1.85 8
11 12/07/2020 00:30:33 -69.89, -11.15 87.58 12/07/2020 00:29:29 -69.87, -11.16 87.60 2.26 64
12 12/09/2020 15:06:03 -70.09, 129.68 87.11 12/09/2020 15:07:01 -70.09, 129.75 87.12 2.80 58
13 12/09/2020 15:56:47 69.98, -62.84 92.78 12/09/2020 15:56:28 69.97, -62.76 92.77 2.97 19
14 12/09/2020 16:47:17 -69.25, 105.54 87.96 12/09/2020 16:46:08 -69.32, 103.98 87.87 61.86 69
15 12/12/2020 07:22:58 -70.04,-114.47 86.95 12/12/2020 07:23:31 -70.03,-114.45 86.96 1.16 33
16 12/12/2020 08:13:42 69.93, 53.01 92.95 12/12/2020 08:12:58 69.91, 53.03 92.93 2.01 44
